Location: Auckland
(36.8670°S, 174.7670°E)
Time: 16:29:08
(UTC+12:00)

CENTAUR R/B - Pass Details

Date: 24 January 2019
Orbit: 789 x 1400 km, 63.5° (Epoch: 13 April)

Event Time Altitude Azimuth Distance (km) Brightness Sun altitude
Exits shadow 23:29:07 33° 89° (E) 1,956 3.7 -26.8°
Drops below altitude 10° 23:34:16 10° 130° (SE) 3,077 5.2 -27.3°
Sets 23:37:03 0° 138° (SE) 3,952 5.9 -27.6°
